| time (UTC) | temp F | wind direction | speed MPH | gust MPH | rain 1hr in | rain 24hr in | rain mn in | humidity % | barometer mb |
| 20260906234551 | 64 | 290 | 6.0 | 11.0 | 0.00 | 0.00 | 0.00 | 58 | 1015.1 |
| 20260906234043 | 64 | 291 | 7.0 | 11.0 | 0.00 | 0.00 | 0.00 | 57 | 1015.2 |
| 20260906233544 | 64 | 294 | 6.0 | 11.0 | 0.00 | 0.00 | 0.00 | 57 | 1015.2 |
| 20260906233058 | 64 | 298 | 6.0 | 11.0 | 0.00 | 0.00 | 0.00 | 59 | 1015.2 |
| 20260906232544 | 64 | 292 | 7.0 | 11.0 | 0.00 | 0.00 | 0.00 | 58 | 1015.2 |
| 20260906232045 | 64 | 302 | 6.0 | 12.0 | 0.00 | 0.00 | 0.00 | 59 | 1015.2 |
| 20260906231553 | 64 | 287 | 6.0 | 12.0 | 0.00 | 0.00 | 0.00 | 58 | 1015.2 |
| 20260906231043 | 65 | 296 | 8.0 | 12.0 | 0.00 | 0.00 | 0.00 | 58 | 1015.2 |
| 20260906230543 | 65 | 297 | 8.0 | 12.0 | 0.00 | 0.00 | 0.00 | 58 | 1015.3 |
| 20260906230057 | 65 | 313 | 7.0 | 11.0 | 0.00 | 0.00 | 0.00 | 57 | 1015.3 |
| 20260906225544 | 65 | 300 | 7.0 | 12.0 | 0.00 | 0.00 | 0.00 | 57 | 1015.3 |
| 20260906225045 | 65 | 305 | 7.0 | 12.0 | 0.00 | 0.00 | 0.00 | 57 | 1015.4 |
| 20260906224601 | 65 | 299 | 7.0 | 11.0 | 0.00 | 0.00 | 0.00 | 56 | 1015.3 |
| 20260906224043 | 65 | 298 | 6.0 | 12.0 | 0.00 | 0.00 | 0.00 | 56 | 1015.4 |
| 20260906223544 | 66 | 303 | 7.0 | 12.0 | 0.00 | 0.00 | 0.00 | 56 | 1015.5 |
| 20260906223100 | 66 | 309 | 7.0 | 12.0 | 0.00 | 0.00 | 0.00 | 56 | 1015.5 |
| 20260906222543 | 66 | 294 | 7.0 | 11.0 | 0.00 | 0.00 | 0.00 | 56 | 1015.4 |
| 20260906222043 | 66 | 311 | 7.0 | 11.0 | 0.00 | 0.00 | 0.00 | 56 | 1015.4 |
| 20260906221601 | 66 | 302 | 5.0 | 11.0 | 0.00 | 0.00 | 0.00 | 55 | 1015.5 |
| 20260906221044 | 66 | 300 | 6.0 | 11.0 | 0.00 | 0.00 | 0.00 | 55 | 1015.5 |
| 20260906220543 | 66 | 292 | 6.0 | 11.0 | 0.00 | 0.00 | 0.00 | 55 | 1015.6 |
| 20260906220055 | 67 | 290 | 5.0 | 11.0 | 0.00 | 0.00 | 0.00 | 55 | 1015.6 |
| 20260906215543 | 67 | 293 | 5.0 | 11.0 | 0.00 | 0.00 | 0.00 | 56 | 1015.5 |
| 20260906215046 | 67 | 324 | 6.0 | 10.0 | 0.00 | 0.00 | 0.00 | 55 | 1015.6 |
| 20260906214552 | 67 | 314 | 6.0 | 10.0 | 0.00 | 0.00 | 0.00 | 56 | 1015.7 |
| 20260906214044 | 67 | 296 | 6.0 | 10.0 | 0.00 | 0.00 | 0.00 | 56 | 1015.7 |
| 20260906213545 | 67 | 304 | 5.0 | 10.0 | 0.00 | 0.00 | 0.00 | 56 | 1015.7 |
| 20260906213105 | 67 | 311 | 5.0 | 10.0 | 0.00 | 0.00 | 0.00 | 56 | 1015.7 |
| 20260906212540 | 67 | 315 | 5.0 | 10.0 | 0.00 | 0.00 | 0.00 | 56 | 1015.9 |
| 20260906212044 | 67 | 292 | 5.0 | 10.0 | 0.00 | 0.00 | 0.00 | 55 | 1015.9 |
| 20260906211557 | 67 | 299 | 6.0 | 10.0 | 0.00 | 0.00 | 0.00 | 54 | 1015.9 |
| 20260906211043 | 67 | 296 | 3.0 | 8.0 | 0.00 | 0.00 | 0.00 | 55 | 1016.0 |
| 20260906210543 | 67 | 291 | 4.0 | 9.0 | 0.00 | 0.00 | 0.00 | 55 | 1016.0 |
| 20260906210057 | 67 | 309 | 4.0 | 9.0 | 0.00 | 0.00 | 0.00 | 56 | 1016.1 |
| 20260906205543 | 67 | 297 | 5.0 | 9.0 | 0.00 | 0.00 | 0.00 | 56 | 1016.3 |
| 20260906205041 | 67 | 301 | 4.0 | 10.0 | 0.00 | 0.00 | 0.00 | 57 | 1016.3 |
| 20260906204607 | 67 | 300 | 4.0 | 10.0 | 0.00 | 0.00 | 0.00 | 56 | 1016.3 |
| 20260906204045 | 67 | 298 | 3.0 | 9.0 | 0.00 | 0.00 | 0.00 | 57 | 1016.3 |
| 20260906203541 | 67 | 306 | 4.0 | 9.0 | 0.00 | 0.00 | 0.00 | 57 | 1016.2 |
| 20260906203102 | 67 | 320 | 4.0 | 8.0 | 0.00 | 0.00 | 0.00 | 58 | 1016.2 |
| 20260906202543 | 67 | 319 | 3.0 | 7.0 | 0.00 | 0.00 | 0.00 | 58 | 1016.2 |
| 20260906202045 | 66 | 317 | 2.0 | 8.0 | 0.00 | 0.00 | 0.00 | 61 | 1016.1 |
| 20260906201607 | 66 | 286 | 3.0 | 8.0 | 0.00 | 0.00 | 0.00 | 59 | 1016.3 |
| 20260906201044 | 66 | 325 | 4.0 | 8.0 | 0.00 | 0.00 | 0.00 | 61 | 1016.2 |
| 20260906200544 | 66 | 306 | 3.0 | 7.0 | 0.00 | 0.00 | 0.00 | 60 | 1016.2 |
| 20260906200054 | 65 | 311 | 4.0 | 8.0 | 0.00 | 0.00 | 0.00 | 62 | 1016.3 |
| 20260906195544 | 66 | 303 | 4.0 | 8.0 | 0.00 | 0.00 | 0.00 | 63 | 1016.3 |
| 20260906195045 | 65 | 309 | 4.0 | 8.0 | 0.00 | 0.00 | 0.00 | 63 | 1016.3 |
| 20260906194606 | 65 | 310 | 4.0 | 8.0 | 0.00 | 0.00 | 0.00 | 65 | 1016.2 |
| 20260906194041 | 65 | 308 | 4.0 | 8.0 | 0.00 | 0.00 | 0.00 | 63 | 1016.3 |
| 20260906193541 | 65 | 302 | 3.0 | 7.0 | 0.00 | 0.00 | 0.00 | 66 | 1016.2 |
| 20260906193058 | 65 | 309 | 3.0 | 7.0 | 0.00 | 0.00 | 0.00 | 65 | 1016.2 |
| 20260906192542 | 64 | 313 | 3.0 | 7.0 | 0.00 | 0.00 | 0.00 | 66 | 1016.2 |
| 20260906192041 | 64 | 309 | 3.0 | 7.0 | 0.00 | 0.00 | 0.00 | 68 | 1016.2 |
| 20260906191557 | 64 | 309 | 3.0 | 8.0 | 0.00 | 0.00 | 0.00 | 69 | 1016.3 |
| 20260906191044 | 63 | 296 | 4.0 | 8.0 | 0.00 | 0.00 | 0.00 | 68 | 1016.3 |
| 20260906190546 | 63 | 313 | 4.0 | 8.0 | 0.00 | 0.00 | 0.00 | 69 | 1016.4 |
| 20260906190058 | 63 | 302 | 3.0 | 7.0 | 0.00 | 0.00 | 0.00 | 70 | 1016.4 |
| 20260906185544 | 63 | 317 | 3.0 | 7.0 | 0.00 | 0.00 | 0.00 | 70 | 1016.3 |
| 20260906185043 | 62 | 323 | 3.0 | 8.0 | 0.00 | 0.00 | 0.00 | 70 | 1016.3 |
| 20260906184556 | 62 | 309 | 3.0 | 8.0 | 0.00 | 0.00 | 0.00 | 71 | 1016.3 |
| 20260906184042 | 62 | 328 | 3.0 | 7.0 | 0.00 | 0.00 | 0.00 | 72 | 1016.4 |
| 20260906183545 | 62 | 304 | 3.0 | 7.0 | 0.00 | 0.00 | 0.00 | 72 | 1016.3 |
| 20260906183100 | 61 | 305 | 3.0 | 7.0 | 0.00 | 0.00 | 0.00 | 73 | 1016.3 |
| 20260906182544 | 61 | 304 | 3.0 | 7.0 | 0.00 | 0.00 | 0.00 | 74 | 1016.4 |
| 20260906182044 | 61 | 311 | 3.0 | 7.0 | 0.00 | 0.00 | 0.00 | 72 | 1016.4 |
| 20260906181557 | 60 | 294 | 3.0 | 7.0 | 0.00 | 0.00 | 0.00 | 73 | 1016.4 |
| 20260906181043 | 60 | 298 | 3.0 | 7.0 | 0.00 | 0.00 | 0.00 | 74 | 1016.3 |
| 20260906180544 | 60 | 301 | 3.0 | 7.0 | 0.00 | 0.00 | 0.00 | 75 | 1016.3 |
| 20260906180105 | 60 | 301 | 3.0 | 7.0 | 0.00 | 0.00 | 0.00 | 75 | 1016.3 |
| 20260906175544 | 59 | 299 | 3.0 | 7.0 | 0.00 | 0.00 | 0.00 | 76 | 1016.3 |
| 20260906175044 | 59 | 295 | 2.0 | 7.0 | 0.00 | 0.00 | 0.00 | 77 | 1016.3 |
| 20260906174557 | 59 | 288 | 3.0 | 5.0 | 0.00 | 0.00 | 0.00 | 79 | 1016.2 |
| 20260906174045 | 58 | 307 | 3.0 | 5.0 | 0.00 | 0.00 | 0.00 | 79 | 1016.2 |
| 20260906173544 | 58 | 302 | 3.0 | 5.0 | 0.00 | 0.00 | 0.00 | 79 | 1016.3 |
| 20260906173106 | 58 | 309 | 2.0 | 5.0 | 0.00 | 0.00 | 0.00 | 81 | 1016.2 |
| 20260906172548 | 57 | 315 | 2.0 | 4.0 | 0.00 | 0.00 | 0.00 | 82 | 1016.2 |
| 20260906172043 | 57 | 315 | 1.0 | 4.0 | 0.00 | 0.00 | 0.00 | 83 | 1016.1 |
| 20260906171600 | 56 | 315 | 2.0 | 4.0 | 0.00 | 0.00 | 0.00 | 85 | 1016.1 |
| 20260906171043 | 55 | 313 | 2.0 | 4.0 | 0.00 | 0.00 | 0.00 | 87 | 1016.0 |
| 20260906170544 | 55 | 313 | 2.0 | 6.0 | 0.00 | 0.00 | 0.00 | 89 | 1016.0 |
| 20260906165543 | 54 | 305 | 4.0 | 6.0 | 0.00 | 0.00 | 0.00 | 94 | 1016.0 |
| 20260906165044 | 53 | 294 | 3.0 | 6.0 | 0.00 | 0.00 | 0.00 | 95 | 1016.0 |
| 20260906164612 | 52 | 301 | 3.0 | 7.0 | 0.00 | 0.00 | 0.00 | 95 | 1015.9 |
| 20260906164044 | 52 | 311 | 4.0 | 9.0 | 0.00 | 0.00 | 0.00 | 95 | 1015.9 |
| 20260906163544 | 52 | 302 | 4.0 | 9.0 | 0.00 | 0.00 | 0.00 | 95 | 1015.9 |
| 20260906163109 | 52 | 304 | 5.0 | 9.0 | 0.00 | 0.00 | 0.00 | 95 | 1015.8 |
| 20260906162544 | 51 | 303 | 5.0 | 9.0 | 0.00 | 0.00 | 0.00 | 96 | 1015.9 |
| 20260906162043 | 51 | 311 | 5.0 | 9.0 | 0.00 | 0.00 | 0.00 | 95 | 1015.9 |
| 20260906161604 | 51 | 300 | 5.0 | 9.0 | 0.00 | 0.00 | 0.00 | 96 | 1016.0 |
| 20260906161044 | 50 | 304 | 5.0 | 10.0 | 0.00 | 0.00 | 0.00 | 96 | 1016.0 |
| 20260906160544 | 50 | 316 | 5.0 | 10.0 | 0.00 | 0.00 | 0.00 | 95 | 1016.0 |
| 20260906160053 | 50 | 314 | 7.0 | 10.0 | 0.00 | 0.00 | 0.00 | 95 | 1015.9 |
| 20260906155544 | 50 | 309 | 6.0 | 9.0 | 0.00 | 0.00 | 0.00 | 95 | 1015.9 |
| 20260906155044 | 50 | 297 | 4.0 | 8.0 | 0.00 | 0.00 | 0.00 | 95 | 1016.0 |
| 20260906154558 | 50 | 302 | 4.0 | 8.0 | 0.00 | 0.00 | 0.00 | 95 | 1016.0 |
| 20260906154044 | 50 | 305 | 3.0 | 8.0 | 0.00 | 0.00 | 0.00 | 95 | 1016.0 |
| 20260906153547 | 50 | 309 | 5.0 | 8.0 | 0.00 | 0.00 | 0.00 | 95 | 1016.0 |
| 20260906153054 | 49 | 314 | 5.0 | 8.0 | 0.00 | 0.00 | 0.00 | 95 | 1016.0 |
| 20260906152546 | 49 | 309 | 5.0 | 8.0 | 0.00 | 0.00 | 0.00 | 95 | 1016.0 |
| 20260906152048 | 49 | 299 | 3.0 | 7.0 | 0.00 | 0.00 | 0.00 | 95 | 1015.9 |
| 20260906151601 | 49 | 306 | 3.0 | 7.0 | 0.00 | 0.00 | 0.00 | 95 | 1015.9 |
| 20260906151044 | 49 | 312 | 3.0 | 7.0 | 0.00 | 0.00 | 0.00 | 95 | 1016.0 |
| 20260906150544 | 49 | 306 | 4.0 | 8.0 | 0.00 | 0.00 | 0.00 | 95 | 1015.9 |
| 20260906150055 | 49 | 327 | 4.0 | 8.0 | 0.00 | 0.00 | 0.00 | 95 | 1015.9 |
| 20260906145544 | 49 | 319 | 4.0 | 7.0 | 0.00 | 0.00 | 0.00 | 95 | 1015.9 |
| 20260906145044 | 49 | 296 | 3.0 | 7.0 | 0.00 | 0.00 | 0.00 | 95 | 1015.9 |
| 20260906144559 | 49 | 300 | 3.0 | 8.0 | 0.00 | 0.00 | 0.00 | 95 | 1015.9 |
| 20260906144043 | 49 | 301 | 4.0 | 8.0 | 0.00 | 0.00 | 0.00 | 95 | 1015.8 |
| 20260906143545 | 49 | 304 | 3.0 | 8.0 | 0.00 | 0.00 | 0.00 | 95 | 1015.8 |
| 20260906143107 | 49 | 304 | 4.0 | 7.0 | 0.00 | 0.00 | 0.00 | 95 | 1015.7 |
| 20260906142545 | 49 | 303 | 3.0 | 7.0 | 0.00 | 0.00 | 0.00 | 95 | 1015.6 |
| 20260906142045 | 49 | 311 | 4.0 | 8.0 | 0.00 | 0.00 | 0.00 | 95 | 1015.4 |
| 20260906141554 | 49 | 315 | 4.0 | 8.0 | 0.00 | 0.00 | 0.00 | 95 | 1015.4 |
| 20260906141044 | 49 | 313 | 3.0 | 8.0 | 0.00 | 0.00 | 0.00 | 95 | 1015.4 |
| 20260906140544 | 49 | 306 | 4.0 | 7.0 | 0.00 | 0.00 | 0.00 | 95 | 1015.4 |
| 20260906140055 | 49 | 308 | 3.0 | 7.0 | 0.00 | 0.00 | 0.00 | 95 | 1015.4 |
| 20260906135545 | 49 | 311 | 4.0 | 7.0 | 0.00 | 0.00 | 0.00 | 95 | 1015.4 |
| 20260906135043 | 49 | 315 | 4.0 | 7.0 | 0.00 | 0.00 | 0.00 | 95 | 1015.4 |
| 20260906134601 | 49 | 309 | 3.0 | 8.0 | 0.00 | 0.00 | 0.00 | 95 | 1015.3 |
| 20260906134045 | 49 | 308 | 4.0 | 8.0 | 0.00 | 0.00 | 0.00 | 95 | 1015.4 |
| 20260906133545 | 49 | 311 | 4.0 | 8.0 | 0.00 | 0.00 | 0.00 | 95 | 1015.2 |
| 20260906133101 | 49 | 300 | 4.0 | 8.0 | 0.00 | 0.00 | 0.00 | 95 | 1015.3 |
| 20260906132545 | 49 | 311 | 4.0 | 8.0 | 0.00 | 0.00 | 0.00 | 95 | 1015.2 |
| 20260906132046 | 49 | 306 | 3.0 | 8.0 | 0.00 | 0.00 | 0.00 | 95 | 1015.3 |
| 20260906131554 | 49 | 305 | 4.0 | 9.0 | 0.00 | 0.00 | 0.00 | 95 | 1015.2 |
| 20260906131044 | 49 | 321 | 4.0 | 9.0 | 0.00 | 0.00 | 0.00 | 95 | 1015.2 |
| 20260906130547 | 49 | 310 | 3.0 | 8.0 | 0.00 | 0.00 | 0.00 | 95 | 1015.1 |
| 20260906130104 | 49 | 309 | 4.0 | 9.0 | 0.00 | 0.00 | 0.00 | 95 | 1015.2 |
| 20260906125545 | 49 | 305 | 4.0 | 9.0 | 0.00 | 0.00 | 0.00 | 95 | 1015.1 |
| 20260906125045 | 49 | 294 | 5.0 | 9.0 | 0.00 | 0.00 | 0.00 | 95 | 1015.1 |
| 20260906124559 | 49 | 315 | 4.0 | 8.0 | 0.00 | 0.00 | 0.00 | 94 | 1015.1 |
| 20260906124045 | 49 | 303 | 3.0 | 8.0 | 0.00 | 0.00 | 0.00 | 94 | 1015.1 |
| 20260906123544 | 49 | 298 | 3.0 | 8.0 | 0.00 | 0.00 | 0.00 | 94 | 1015.1 |
| 20260906123058 | 49 | 305 | 5.0 | 8.0 | 0.00 | 0.00 | 0.00 | 94 | 1015.1 |
| 20260906122548 | 49 | 313 | 4.0 | 8.0 | 0.00 | 0.00 | 0.00 | 94 | 1015.1 |
| 20260906122044 | 49 | 311 | 3.0 | 9.0 | 0.00 | 0.00 | 0.00 | 94 | 1015.1 |
| 20260906121557 | 49 | 312 | 3.0 | 9.0 | 0.00 | 0.00 | 0.00 | 94 | 1015.1 |
| 20260906121044 | 49 | 321 | 5.0 | 9.0 | 0.00 | 0.00 | 0.00 | 94 | 1015.1 |
| 20260906120544 | 49 | 305 | 7.0 | 10.0 | 0.00 | 0.00 | 0.00 | 94 | 1015.1 |
| 20260906120110 | 49 | 304 | 5.0 | 11.0 | 0.00 | 0.00 | 0.00 | 94 | 1015.1 |
| 20260906115545 | 49 | 319 | 7.0 | 11.0 | 0.00 | 0.00 | 0.00 | 94 | 1015.0 |
| 20260906115044 | 49 | 311 | 7.0 | 10.0 | 0.00 | 0.00 | 0.00 | 94 | 1015.1 |
| 20260906114602 | 49 | 298 | 7.0 | 10.0 | 0.00 | 0.00 | 0.00 | 94 | 1015.0 |
| 20260906114044 | 49 | 300 | 6.0 | 10.0 | 0.00 | 0.00 | 0.00 | 94 | 1015.0 |
| 20260906113545 | 49 | 313 | 6.0 | 10.0 | 0.00 | 0.00 | 0.00 | 94 | 1015.0 |
| 20260906113100 | 49 | 309 | 7.0 | 10.0 | 0.00 | 0.00 | 0.00 | 94 | 1014.9 |
| 20260906112544 | 49 | 316 | 6.0 | 10.0 | 0.00 | 0.00 | 0.00 | 94 | 1015.0 |
| 20260906112044 | 49 | 305 | 5.0 | 10.0 | 0.00 | 0.00 | 0.00 | 94 | 1015.0 |
| 20260906111607 | 49 | 306 | 7.0 | 10.0 | 0.00 | 0.00 | 0.00 | 93 | 1014.8 |
| 20260906111044 | 49 | 298 | 6.0 | 9.0 | 0.00 | 0.00 | 0.00 | 93 | 1014.9 |
| 20260906110547 | 49 | 311 | 4.0 | 9.0 | 0.00 | 0.00 | 0.00 | 93 | 1014.9 |
| 20260906110050 | 49 | 314 | 4.0 | 9.0 | 0.00 | 0.00 | 0.00 | 93 | 1014.8 |
| 20260906105544 | 49 | 311 | 3.0 | 8.0 | 0.00 | 0.00 | 0.00 | 93 | 1014.8 |
| 20260906105044 | 49 | 302 | 5.0 | 8.0 | 0.00 | 0.00 | 0.00 | 93 | 1014.9 |
| 20260906104559 | 50 | 303 | 4.0 | 8.0 | 0.00 | 0.00 | 0.00 | 93 | 1014.7 |
| 20260906104045 | 50 | 307 | 4.0 | 8.0 | 0.00 | 0.00 | 0.00 | 93 | 1014.8 |
| 20260906103546 | 50 | 317 | 5.0 | 10.0 | 0.00 | 0.00 | 0.00 | 93 | 1014.8 |
| 20260906103058 | 50 | 303 | 5.0 | 10.0 | 0.00 | 0.00 | 0.00 | 92 | 1014.8 |
| 20260906102545 | 50 | 296 | 8.0 | 10.0 | 0.00 | 0.00 | 0.00 | 92 | 1014.8 |
| 20260906102048 | 50 | 305 | 7.0 | 10.0 | 0.00 | 0.00 | 0.00 | 92 | 1014.8 |
| 20260906101552 | 50 | 302 | 6.0 | 9.0 | 0.00 | 0.00 | 0.00 | 91 | 1015.0 |
| 20260906101044 | 50 | 313 | 6.0 | 9.0 | 0.00 | 0.00 | 0.00 | 91 | 1015.0 |
| 20260906100544 | 51 | 311 | 6.0 | 9.0 | 0.00 | 0.00 | 0.00 | 90 | 1014.9 |
| 20260906100233 | 51 | 311 | 7.0 | 9.0 | 0.00 | 0.00 | 0.00 | 89 | 1014.9 |
| 20260906095545 | 51 | 310 | 6.0 | 9.0 | 0.00 | 0.00 | 0.00 | 88 | 1014.9 |
| 20260906095045 | 52 | 312 | 6.0 | 9.0 | 0.00 | 0.00 | 0.00 | 87 | 1015.0 |
| 20260906094557 | 52 | 311 | 5.0 | 8.0 | 0.00 | 0.00 | 0.00 | 85 | 1014.9 |
| 20260906094045 | 53 | 318 | 6.0 | 8.0 | 0.00 | 0.00 | 0.00 | 80 | 1014.8 |
| 20260906093545 | 54 | 309 | 5.0 | 7.0 | 0.00 | 0.00 | 0.00 | 76 | 1014.9 |
| 20260906093058 | 55 | 306 | 4.0 | 6.0 | 0.00 | 0.00 | 0.00 | 68 | 1014.9 |
| 20260906092547 | 56 | 318 | 3.0 | 6.0 | 0.00 | 0.00 | 0.00 | 61 | 1015.0 |
| 20260906092046 | 57 | 319 | 4.0 | 6.0 | 0.00 | 0.00 | 0.00 | 57 | 1015.0 |
| 20260906091600 | 57 | 317 | 4.0 | 7.0 | 0.00 | 0.00 | 0.00 | 57 | 1014.9 |
| 20260906091047 | 57 | 313 | 4.0 | 8.0 | 0.00 | 0.00 | 0.00 | 57 | 1015.1 |
| 20260906090543 | 56 | 317 | 5.0 | 8.0 | 0.00 | 0.00 | 0.00 | 57 | 1015.0 |
| 20260906090057 | 56 | 322 | 4.0 | 8.0 | 0.00 | 0.00 | 0.00 | 59 | 1015.0 |
| 20260906085543 | 56 | 326 | 4.0 | 8.0 | 0.00 | 0.00 | 0.00 | 60 | 1015.1 |
| 20260906085044 | 56 | 321 | 4.0 | 8.0 | 0.00 | 0.00 | 0.00 | 62 | 1015.1 |
| 20260906084558 | 56 | 314 | 5.0 | 8.0 | 0.00 | 0.00 | 0.00 | 60 | 1015.0 |
| 20260906084048 | 56 | 311 | 5.0 | 7.0 | 0.00 | 0.00 | 0.00 | 59 | 1015.1 |
| 20260906083544 | 56 | 311 | 4.0 | 7.0 | 0.00 | 0.00 | 0.00 | 61 | 1015.1 |
| 20260906083055 | 56 | 314 | 4.0 | 7.0 | 0.00 | 0.00 | 0.00 | 60 | 1015.2 |
| 20260906082544 | 55 | 316 | 4.0 | 7.0 | 0.00 | 0.00 | 0.00 | 62 | 1015.2 |
| 20260906082049 | 55 | 321 | 3.0 | 5.0 | 0.00 | 0.00 | 0.00 | 65 | 1015.2 |
| 20260906081559 | 54 | 321 | 4.0 | 5.0 | 0.00 | 0.00 | 0.00 | 68 | 1015.2 |
| 20260906081044 | 54 | 320 | 4.0 | 5.0 | 0.00 | 0.00 | 0.00 | 72 | 1015.4 |
| 20260906080544 | 54 | 319 | 4.0 | 5.0 | 0.00 | 0.00 | 0.00 | 73 | 1015.3 |
| 20260906080057 | 54 | 319 | 3.0 | 5.0 | 0.00 | 0.00 | 0.00 | 76 | 1015.3 |
| 20260906075545 | 54 | 321 | 3.0 | 6.0 | 0.00 | 0.00 | 0.00 | 77 | 1015.4 |
| 20260906075045 | 55 | 323 | 3.0 | 9.0 | 0.00 | 0.00 | 0.00 | 75 | 1015.4 |
| 20260906074601 | 56 | 323 | 6.0 | 9.0 | 0.00 | 0.00 | 0.00 | 70 | 1015.4 |
| 20260906074044 | 56 | 316 | 4.0 | 9.0 | 0.00 | 0.00 | 0.00 | 67 | 1015.3 |
| 20260906073545 | 56 | 313 | 5.0 | 9.0 | 0.00 | 0.00 | 0.00 | 66 | 1015.4 |
| 20260906073054 | 55 | 316 | 6.0 | 9.0 | 0.00 | 0.00 | 0.00 | 67 | 1015.3 |
| 20260906072545 | 55 | 309 | 5.0 | 8.0 | 0.00 | 0.00 | 0.00 | 72 | 1015.2 |
| 20260906072045 | 55 | 304 | 5.0 | 7.0 | 0.00 | 0.00 | 0.00 | 73 | 1015.3 |
| 20260906071600 | 55 | 314 | 3.0 | 5.0 | 0.00 | 0.00 | 0.00 | 76 | 1015.3 |
| 20260906071047 | 55 | 315 | 4.0 | 5.0 | 0.00 | 0.00 | 0.00 | 75 | 1015.3 |
| 20260906070544 | 55 | 319 | 3.0 | 5.0 | 0.00 | 0.00 | 0.00 | 74 | 1015.3 |
| 20260906070056 | 55 | 317 | 3.0 | 8.0 | 0.00 | 0.00 | 0.00 | 74 | 1015.3 |
| 20260906065544 | 55 | 321 | 4.0 | 8.0 | 0.00 | 0.00 | 0.00 | 75 | 1015.3 |
| 20260906065045 | 54 | 311 | 5.0 | 8.0 | 0.00 | 0.00 | 0.00 | 75 | 1015.3 |
| 20260906064559 | 54 | 319 | 5.0 | 8.0 | 0.00 | 0.00 | 0.00 | 77 | 1015.3 |
| 20260906064044 | 54 | 317 | 4.0 | 9.0 | 0.00 | 0.00 | 0.00 | 78 | 1015.3 |
| 20260906063543 | 54 | 321 | 5.0 | 9.0 | 0.00 | 0.00 | 0.00 | 78 | 1015.3 |
| 20260906063058 | 54 | 312 | 6.0 | 9.0 | 0.00 | 0.00 | 0.00 | 78 | 1015.4 |
| 20260906062548 | 54 | 313 | 5.0 | 9.0 | 0.00 | 0.00 | 0.00 | 78 | 1015.4 |
| 20260906062044 | 54 | 293 | 4.0 | 8.0 | 0.00 | 0.00 | 0.00 | 78 | 1015.4 |
| 20260906061556 | 54 | 314 | 5.0 | 8.0 | 0.00 | 0.00 | 0.00 | 79 | 1015.3 |
| 20260906061044 | 54 | 309 | 4.0 | 8.0 | 0.00 | 0.00 | 0.00 | 79 | 1015.4 |
| 20260906060544 | 54 | 310 | 4.0 | 6.0 | 0.00 | 0.00 | 0.00 | 79 | 1015.4 |
| 20260906060106 | 54 | 322 | 4.0 | 8.0 | 0.00 | 0.00 | 0.00 | 79 | 1015.4 |
| 20260906055545 | 54 | 317 | 5.0 | 8.0 | 0.00 | 0.00 | 0.00 | 78 | 1015.4 |
| 20260906055044 | 54 | 313 | 5.0 | 8.0 | 0.00 | 0.00 | 0.00 | 78 | 1015.4 |
| 20260906054558 | 53 | 311 | 6.0 | 8.0 | 0.00 | 0.00 | 0.00 | 79 | 1015.5 |
| 20260906054045 | 53 | 317 | 5.0 | 8.0 | 0.00 | 0.00 | 0.00 | 82 | 1015.5 |
| 20260906053544 | 53 | 319 | 4.0 | 7.0 | 0.00 | 0.00 | 0.00 | 84 | 1015.5 |
| 20260906053058 | 53 | 317 | 4.0 | 6.0 | 0.00 | 0.00 | 0.00 | 85 | 1015.6 |
| 20260906052602 | 53 | 320 | 4.0 | 8.0 | 0.00 | 0.00 | 0.00 | 85 | 1015.6 |
| 20260906052045 | 53 | 308 | 3.0 | 8.0 | 0.00 | 0.00 | 0.00 | 85 | 1015.6 |
| 20260906051603 | 53 | 315 | 3.0 | 6.0 | 0.00 | 0.00 | 0.00 | 85 | 1015.6 |
| 20260906051044 | 53 | 317 | 2.0 | 5.0 | 0.00 | 0.00 | 0.00 | 87 | 1015.7 |
| 20260906050544 | 53 | 323 | 2.0 | 5.0 | 0.00 | 0.00 | 0.00 | 86 | 1015.7 |
| 20260906050106 | 53 | 323 | 3.0 | 5.0 | 0.00 | 0.00 | 0.00 | 86 | 1015.6 |
| 20260906045547 | 54 | 327 | 2.0 | 4.0 | 0.00 | 0.00 | 0.00 | 84 | 1015.6 |
| 20260906045047 | 53 | 327 | 2.0 | 4.0 | 0.00 | 0.00 | 0.00 | 83 | 1015.6 |
| 20260906044559 | 53 | 327 | 3.0 | 5.0 | 0.00 | 0.00 | 0.00 | 83 | 1015.6 |
| 20260906044045 | 53 | 327 | 2.0 | 7.0 | 0.00 | 0.00 | 0.00 | 84 | 1015.6 |
| 20260906043545 | 54 | 331 | 3.0 | 7.0 | 0.00 | 0.00 | 0.00 | 84 | 1015.6 |
| 20260906043056 | 54 | 318 | 4.0 | 7.0 | 0.00 | 0.00 | 0.00 | 85 | 1015.6 |
| 20260906042545 | 54 | 316 | 4.0 | 8.0 | 0.00 | 0.00 | 0.00 | 84 | 1015.5 |
| 20260906042044 | 54 | 312 | 5.0 | 8.0 | 0.00 | 0.00 | 0.00 | 82 | 1015.4 |
| 20260906041557 | 54 | 315 | 4.0 | 8.0 | 0.00 | 0.00 | 0.00 | 81 | 1015.4 |
| 20260906041044 | 54 | 308 | 4.0 | 8.0 | 0.00 | 0.00 | 0.00 | 81 | 1015.3 |
| 20260906040544 | 54 | 315 | 5.0 | 8.0 | 0.00 | 0.00 | 0.00 | 81 | 1015.2 |
| 20260906040115 | 54 | 319 | 5.0 | 9.0 | 0.00 | 0.00 | 0.00 | 81 | 1015.3 |
| 20260906035543 | 54 | 313 | 5.0 | 9.0 | 0.00 | 0.00 | 0.00 | 83 | 1015.2 |
| 20260906035046 | 54 | 313 | 5.0 | 9.0 | 0.00 | 0.00 | 0.00 | 82 | 1015.2 |
| 20260906034559 | 54 | 303 | 4.0 | 9.0 | 0.00 | 0.00 | 0.00 | 82 | 1015.2 |
| 20260906034044 | 55 | 320 | 5.0 | 9.0 | 0.00 | 0.00 | 0.00 | 82 | 1015.1 |
| 20260906033545 | 55 | 311 | 5.0 | 9.0 | 0.00 | 0.00 | 0.00 | 81 | 1015.1 |
| 20260906033100 | 55 | 313 | 5.0 | 9.0 | 0.00 | 0.00 | 0.00 | 81 | 1015.0 |
| 20260906032546 | 55 | 296 | 5.0 | 8.0 | 0.00 | 0.00 | 0.00 | 81 | 1015.0 |
| 20260906032044 | 55 | 290 | 5.0 | 8.0 | 0.00 | 0.00 | 0.00 | 80 | 1014.9 |
| 20260906031606 | 55 | 298 | 4.0 | 8.0 | 0.00 | 0.00 | 0.00 | 80 | 1015.0 |
| 20260906031044 | 56 | 301 | 4.0 | 8.0 | 0.00 | 0.00 | 0.00 | 79 | 1014.9 |
| 20260906030544 | 56 | 293 | 3.0 | 8.0 | 0.00 | 0.00 | 0.00 | 79 | 1014.9 |
| 20260906025545 | 56 | 300 | 3.0 | 7.0 | 0.00 | 0.00 | 0.00 | 77 | 1015.0 |
| 20260906025044 | 57 | 288 | 3.0 | 8.0 | 0.00 | 0.00 | 0.00 | 76 | 1014.9 |
| 20260906024618 | 57 | 295 | 3.0 | 8.0 | 0.00 | 0.00 | 0.00 | 76 | 1014.9 |
| 20260906024043 | 57 | 300 | 4.0 | 8.0 | 0.00 | 0.00 | 0.00 | 76 | 1015.0 |
| 20260906023545 | 57 | 292 | 4.0 | 7.0 | 0.00 | 0.00 | 0.00 | 76 | 1015.1 |
| 20260906023055 | 58 | 307 | 3.0 | 9.0 | 0.00 | 0.00 | 0.00 | 75 | 1015.1 |
| 20260906022547 | 58 | 298 | 4.0 | 9.0 | 0.00 | 0.00 | 0.00 | 75 | 1015.1 |
| 20260906022044 | 58 | 305 | 5.0 | 9.0 | 0.00 | 0.00 | 0.00 | 76 | 1015.1 |
| 20260906021611 | 58 | 311 | 4.0 | 9.0 | 0.00 | 0.00 | 0.00 | 76 | 1015.2 |
| 20260906021044 | 59 | 299 | 6.0 | 9.0 | 0.00 | 0.00 | 0.00 | 75 | 1015.2 |
| 20260906020544 | 59 | 305 | 6.0 | 9.0 | 0.00 | 0.00 | 0.00 | 75 | 1015.2 |
| 20260906020106 | 59 | 312 | 5.0 | 9.0 | 0.00 | 0.00 | 0.00 | 75 | 1015.2 |
| 20260906015544 | 60 | 298 | 4.0 | 8.0 | 0.00 | 0.00 | 0.00 | 74 | 1015.1 |
| 20260906015048 | 60 | 296 | 3.0 | 8.0 | 0.00 | 0.00 | 0.00 | 73 | 1015.3 |
| 20260906014612 | 60 | 313 | 4.0 | 10.0 | 0.00 | 0.00 | 0.00 | 73 | 1015.3 |
| 20260906014044 | 60 | 302 | 6.0 | 10.0 | 0.00 | 0.00 | 0.00 | 71 | 1015.2 |
| 20260906013544 | 60 | 292 | 5.0 | 10.0 | 0.00 | 0.00 | 0.00 | 70 | 1015.3 |
| 20260906013100 | 61 | 311 | 4.0 | 10.0 | 0.00 | 0.00 | 0.00 | 69 | 1015.3 |
| 20260906012544 | 61 | 301 | 4.0 | 9.0 | 0.00 | 0.00 | 0.00 | 69 | 1015.2 |
| 20260906012046 | 61 | 322 | 4.0 | 9.0 | 0.00 | 0.00 | 0.00 | 68 | 1015.1 |
| 20260906011559 | 61 | 299 | 4.0 | 8.0 | 0.00 | 0.00 | 0.00 | 69 | 1015.3 |
| 20260906011044 | 61 | 295 | 4.0 | 9.0 | 0.00 | 0.00 | 0.00 | 69 | 1015.3 |
| 20260906010543 | 61 | 300 | 4.0 | 9.0 | 0.00 | 0.00 | 0.00 | 67 | 1015.3 |
| 20260906010113 | 61 | 290 | 5.0 | 10.0 | 0.00 | 0.00 | 0.00 | 67 | 1015.3 |
| 20260906005546 | 61 | 284 | 4.0 | 10.0 | 0.00 | 0.00 | 0.00 | 67 | 1015.1 |
| 20260906005044 | 62 | 309 | 5.0 | 9.0 | 0.00 | 0.00 | 0.00 | 66 | 1015.3 |
| 20260906004610 | 62 | 311 | 4.0 | 9.0 | 0.00 | 0.00 | 0.00 | 65 | 1015.2 |
| 20260906004044 | 62 | 305 | 3.0 | 10.0 | 0.00 | 0.00 | 0.00 | 64 | 1015.3 |
| 20260906003544 | 62 | 313 | 5.0 | 10.0 | 0.00 | 0.00 | 0.00 | 62 | 1015.2 |
| 20260906003118 | 63 | 291 | 6.0 | 11.0 | 0.00 | 0.00 | 0.00 | 61 | 1015.3 |
| 20260906002543 | 63 | 317 | 6.0 | 11.0 | 0.00 | 0.00 | 0.00 | 60 | 1015.2 |
| 20260906002046 | 63 | 311 | 6.0 | 9.0 | 0.00 | 0.00 | 0.00 | 58 | 1015.2 |
| 20260906001559 | 64 | 313 | 5.0 | 11.0 | 0.00 | 0.00 | 0.00 | 57 | 1015.2 |
| 20260906001043 | 64 | 296 | 6.0 | 13.0 | 0.00 | 0.00 | 0.00 | 57 | 1015.2 |
| 20260906000545 | 64 | 298 | 7.0 | 13.0 | 0.00 | 0.00 | 0.00 | 56 | 1015.2 |
| 20260906000103 | 64 | 313 | 8.0 | 13.0 | 0.00 | 0.00 | 0.00 | 56 | 1015.1 |
| 20260905235544 | 65 | 299 | 8.0 | 12.0 | 0.00 | 0.00 | 0.00 | 55 | 1015.1 |
| 20260905235044 | 65 | 305 | 6.0 | 11.0 | 0.00 | 0.00 | 0.00 | 55 | 1015.2 |